TimeCST,TemperatureF,Dew PointF,Humidity,Sea Level PressureIn,VisibilityMPH,Wind Direction,Wind SpeedMPH,Gust SpeedMPH,PrecipitationIn,Events,Conditions,WindDirDegrees,DateUTC
12:52 AM,39.0,35.1,86,30.04,-9999.0,Calm,Calm,-,N/A,,Unknown,0,2012-12-01 06:52:00
1:52 AM,42.1,36.0,79,30.01,-9999.0,Calm,Calm,-,N/A,,Unknown,0,2012-12-01 07:52:00
2:52 AM,46.0,39.0,76,30.02,-9999.0,SSE,4.6,-,N/A,,Unknown,150,2012-12-01 08:52:00
3:52 AM,46.9,41.0,80,30.00,-9999.0,Calm,Calm,-,N/A,,Unknown,0,2012-12-01 09:52:00
4:52 AM,48.0,42.1,80,29.99,-9999.0,SE,3.5,-,N/A,,Unknown,130,2012-12-01 10:52:00
5:52 AM,52.0,46.0,80,29.97,-9999.0,SE,6.9,-,N/A,,Unknown,140,2012-12-01 11:52:00
6:52 AM,53.1,46.9,80,29.97,-9999.0,SE,6.9,-,N/A,,Unknown,140,2012-12-01 12:52:00
7:52 AM,55.0,50.0,83,29.96,-9999.0,SSE,6.9,-,N/A,,Unknown,150,2012-12-01 13:52:00
8:52 AM,55.9,51.1,84,29.96,-9999.0,SSE,6.9,-,N/A,,Unknown,160,2012-12-01 14:52:00
9:52 AM,55.9,52.0,87,29.96,-9999.0,SSE,4.6,-,N/A,,Unknown,160,2012-12-01 15:52:00
10:52 AM,57.9,53.1,84,29.94,-9999.0,SE,8.1,-,N/A,,Unknown,140,2012-12-01 16:52:00
11:52 AM,60.1,53.1,78,29.90,-9999.0,SSE,9.2,-,N/A,,Unknown,150,2012-12-01 17:52:00
12:52 PM,62.1,54.0,75,29.87,-9999.0,SSE,6.9,-,N/A,,Unknown,150,2012-12-01 18:52:00
1:52 PM,64.0,55.0,73,29.86,-9999.0,SSE,9.2,-,N/A,,Unknown,160,2012-12-01 19:52:00
2:52 PM,64.0,55.0,73,29.83,-9999.0,SE,8.1,-,N/A,,Unknown,140,2012-12-01 20:52:00
3:52 PM,64.0,55.0,73,29.83,-9999.0,SE,4.6,-,N/A,,Unknown,130,2012-12-01 21:52:00
4:52 PM,62.1,55.0,78,29.83,-9999.0,ESE,3.5,-,N/A,,Unknown,110,2012-12-01 22:52:00
5:52 PM,60.1,54.0,80,29.83,-9999.0,SSE,3.5,-,N/A,,Unknown,150,2012-12-01 23:52:00
6:52 PM,57.9,53.1,84,29.84,-9999.0,Calm,Calm,-,N/A,,Unknown,0,2012-12-02 00:52:00
7:52 PM,55.9,52.0,87,29.85,-9999.0,Calm,Calm,-,N/A,,Unknown,0,2012-12-02 01:52:00
8:52 PM,52.0,50.0,93,29.85,-9999.0,Calm,Calm,-,N/A,,Unknown,0,2012-12-02 02:52:00
9:52 PM,51.1,48.0,89,29.86,-9999.0,Calm,Calm,-,N/A,,Unknown,0,2012-12-02 03:52:00
10:52 PM,50.0,48.9,96,29.87,-9999.0,Calm,Calm,-,N/A,,Unknown,0,2012-12-02 04:52:00
11:52 PM,46.0,45.0,96,29.88,-9999.0,Calm,Calm,-,N/A,,Unknown,0,2012-12-02 05:52:00